Location: McDonald Observatory
(30.6717°N, 104.0221°W)
Time: 10:26:45
(UTC-05:00)

Daily predictions for brighter satellites

Satellite Brightness Start Highest point End
(mag) Time Altitude Azimuth Time Altitude Azimuth Time Altitude Azimuth
Cosmos 2074 Rocket 4.3 21:10:56 10° SSE 21:16:53 46° E 21:22:48 10° NNE
NOSS 2-2 (D) 4.0 21:15:39 10° SW 21:19:40 65° WNW 21:24:02 10° NNE
Meteor 2-3 Rocket 3.7 21:14:10 10° S 21:19:48 85° E 21:25:25 10° N
OAO 3 Rocket 4.0 21:19:47 10° SW 21:24:15 34° SSE 21:28:42 10° E
ATLAS 2A CENTAUR R/B 2.1 21:20:39 10° WSW 21:26:02 31° S 21:28:06 11° ESE
Resurs 01 Rocket 3.1 21:24:43 10° S 21:28:49 39° W 21:32:58 10° NNW
SL-27 R/B 4.0 21:30:53 10° NNE 21:33:40 21° ENE 21:35:57 12° ESE
Cosmos 1340 Rocket 3.4 21:29:57 10° SSW 21:33:52 60° W 21:37:50 10° N
Sich 1 Rocket 4.5 21:31:55 10° SSE 21:35:55 31° E 21:39:57 10° NNE
Cosmos 1892 2.6 21:33:08 10° S 21:36:57 83° E 21:40:48 10° N
Cosmos 1356 Rocket 3.5 21:33:36 10° S 21:37:48 89° W 21:42:06 10° N
Meteosat 1 Rocket2 3.9 21:34:07 10° W 21:39:11 72° S 21:47:06 10° E
CZ-4B DEB 4.4 21:39:21 10° SSW 21:42:24 36° W 21:45:27 10° NNW
SL-08 ROCKET BODY 4.4 21:38:00 10° S 21:43:58 68° E 21:49:53 10° NNE
CZ-4 DEB 3.3 21:43:16 14° SE 21:45:41 39° ENE 21:48:39 10° N
GPS 2-05 Rocket1 3.5 21:42:38 10° W 21:46:19 59° NNW 21:49:56 10° ENE
H-2A R/B 2.7 21:44:02 10° S 21:47:43 83° WSW 21:51:27 10° NNW
Cosmos 1782 3.6 21:44:16 10° NNE 21:47:56 33° E 21:50:33 16° SE
Coronas F rocket 2.2 21:46:03 10° SSW 21:48:36 48° W 21:51:11 10° N
ERBS 2.6 21:45:31 10° NNW 21:48:55 53° NE 21:51:07 19° ESE
Envisat 4.1 21:46:06 14° ESE 21:49:18 26° ENE 21:53:27 10° NNE
Abrixas rocket 3.3 21:47:02 10° WNW 21:50:16 40° SW 21:52:48 15° SSE
SEDSat Delta rocket 3.6 21:47:34 10° SW 21:51:39 35° SSE 21:54:13 18° ESE
Cosmos 1939 Rocket 3.8 21:53:45 19° ESE 21:55:36 28° ENE 21:58:57 10° NNE
TIMED 4.5 21:52:20 10° S 21:56:38 62° ESE 22:00:57 10° NNE
Atlas Centaur 2 0.8 21:55:03 10° W 21:58:41 82° S 22:00:48 23° E
OAO 1 Rocket 4.4 21:57:37 10° WSW 22:02:54 76° SSE 22:08:13 10° ENE
Cosmos 2084 3.2 21:59:22 10° SSW 22:03:17 81° WNW 22:07:06 10° NNE
Cosmos 1908 Rocket 3.7 22:00:01 10° SSE 22:04:10 51° E 22:08:27 10° NNE
Cosmos 1733 Rocket 3.7 22:01:52 10° SSW 22:06:11 57° W 22:10:31 10° N
ERS-1 Rocket 3.0 22:02:39 16° SSE 22:06:32 61° ENE 22:11:31 10° N
IUS-26 SRM-1 3.0 22:09:13 10° WSW 22:10:34 24° SSW 22:10:34 24° SSW
ATLAS 5 CENTAUR R/B 2.5 22:05:47 10° NNW 22:12:00 87° WSW 22:16:44 20° SSE
Cosmos 1378 Rocket 4.4 22:08:17 10° NNE 22:12:07 31° E 22:13:08 27° ESE
Cosmos 407 Rocket 3.7 22:07:15 10° N 22:12:27 54° ENE 22:15:21 25° SE
Meteor 2-6 Rocket 4.2 22:09:22 10° N 22:15:18 75° E 22:19:44 18° SSE
deb Chang Zheng 4 3.5 22:12:53 10° NNE 22:17:19 77° ESE 22:21:45 10° S
Cosmos 1452 Rocket 3.5 22:12:05 10° SSW 22:17:20 87° WNW 22:22:38 10° NNE
YAOGAN 6 4.5 22:18:38 16° ENE 22:18:38 16° ENE 22:20:23 10° NNE
Cosmos 1408 2.7 22:18:18 37° SE 22:19:23 52° E 22:22:56 10° NNE
Cosmos 1825 2.1 22:22:41 35° SSE 22:24:07 64° E 22:27:54 10° NNE
Cosmos 2154 Rocket 3.9 22:18:20 10° S 22:24:33 82° E 22:30:46 10° N
ALOS 4.2 22:21:54 10° SSW 22:25:49 26° W 22:29:45 10° NW
COSMOS 2406 3.6 22:21:05 10° NNW 22:26:44 62° WSW 22:30:54 18° S
Cosmos 1190 Rocket 4.0 22:21:57 10° NNW 22:27:09 83° WSW 22:30:12 25° S
SJ-11-01 4.5 22:24:58 19° S 22:28:19 72° WSW 22:33:04 10° NNW
Cosmos 2278 Rocket 2.2 22:23:28 10° SSW 22:29:08 86° WNW 22:34:50 10° NNE
Nimbus 7 Rocket 4.3 22:23:24 10° NNE 22:29:21 84° ESE 22:35:22 10° SSW
USA 234 3.8 22:24:45 10° ENE 22:30:21 30° SE 22:35:55 10° S
Intelsat 3F5 C 3.9 22:27:57 10° W 22:31:01 79° WSW 22:31:01 79° WSW
CZ-4B R/B 4.1 22:26:56 10° NE 22:31:08 32° E 22:31:08 32° E
Cosmos 1844 Rocket 4.3 22:27:02 10° SW 22:32:10 35° WNW 22:37:20 10° N
Cosmos 1184 Rocket 2.7 22:32:43 71° E 22:32:43 71° E 22:36:00 10° NNE
Centaur AC-119 3.6 22:31:32 10° WSW 22:32:07 14° WSW 22:32:07 14° WSW
H-2A R/B 1.9 22:32:35 42° SSE 22:33:58 75° ENE 22:38:14 10° N
deb Centaur AC-2 4.5 22:31:02 10° W 22:37:15 77° S 22:39:03 42° ESE
ISS -0.1 22:44:50 10° WNW 22:46:52 16° NW 22:48:56 10° N
CZ-3C R/B 3.2 22:18:12 10° WSW 22:48:27 42° S 22:50:58 34° SSE
Terra 4.0 22:52:21 12° NE 22:52:21 12° NE 22:53:35 10° NE
Intercosmos 25 3.8 22:52:28 45° NNE 22:52:28 45° NNE 22:54:49 10° NNE
Cosmos 2366 rocket 4.4 22:51:57 40° ESE 22:52:30 41° E 22:58:21 10° NNE
CENTAUR R/B 4.1 22:46:43 10° NW 22:54:06 40° WSW 23:00:10 16° S
Cosmos 2082 Rocket 3.6 22:50:08 10° N 22:54:34 23° ENE 22:54:52 23° ENE
SPOT 5 3.0 22:55:02 50° SSE 22:56:29 89° WSW 23:01:52 10° NNW
Cosmos 676 Rocket 4.1 22:52:37 10° NNW 22:57:48 73° WSW 22:59:13 48° S
Cosmos 1238 Rocket 2.8 22:54:31 10° N 22:57:48 72° WNW 22:57:48 72° WNW
COS B Rocket 4.3 22:58:30 10° NNW 23:02:08 39° W 23:02:44 36° WSW
Cosmos 1954 Rocket 3.9 22:57:16 10° NNW 23:02:30 87° WSW 23:03:20 64° S
Okean 2 Rocket 3.4 23:02:43 49° SW 23:03:40 64° W 23:08:03 10° N
Cosmos 2297 3.6 23:00:51 25° SSW 23:04:17 88° WNW 23:10:02 10° NNE
OAO 3 Rocket 3.2 23:02:40 10° WSW 23:07:39 79° NNW 23:08:12 68° NE
Okean 3 3.7 23:04:46 10° NNW 23:08:59 64° W 23:08:59 64° W
Cosmos 1606 4.4 23:08:46 10° NNW 23:12:10 28° W 23:12:55 26° WSW
NOAA 11 4.2 23:12:15 59° E 23:12:20 59° ENE 23:17:45 10° N
Cosmos 1741 Rocket 4.3 23:10:58 10° N 23:15:37 53° NE 23:15:37 53° NE
Cosmos 2218 Rocket 3.9 23:18:42 59° S 23:20:03 86° E 23:26:29 10° N
Cosmos 1023 Rocket 4.5 23:20:33 10° NNW 23:25:24 77° WNW 23:25:24 77° WNW
Timation 1 Rocket 4.5 23:27:35 60° ENE 23:27:35 60° ENE 23:32:39 10° NNE
COSMOS 2487 4.5 23:24:13 10° NNW 23:26:19 28° NW 23:26:19 28° NW
Cosmos 1975 Rocket 4.5 23:34:02 10° NNW 23:37:35 33° W 23:37:35 33° W
Cosmos 1727 Rocket 4.1 23:35:14 10° N 23:40:46 64° NE 23:40:46 64° NE
Meteor 2-19 Rocket 4.4 23:44:09 74° NNE 23:44:09 74° NNE 23:49:42 10° N
ARGOS 3.5 23:46:44 59° WNW 23:46:44 59° WNW 23:51:33 10° NNW
H-2A R/B 2.8 23:53:53 50° N 23:53:53 50° N 23:57:50 10° N
